Wind_Speed
55 55 53 56 58 59 59 59 58 52 47 48 47 43 39 35 38 45 49 49 45 41 36 28 26 29 31 29 27 25 22 21 23 24 21 16 12 13 15 13 12 11 11 11 10 10 10 10 11 12 13 14 15 15 16 17 18 18 18 18 18 17 17
55 54 53 56 58 59 61 60 58 55 54 52 45 41 42 41 42 46 46 45 44 43 37 29 30 33 32 30 28 25 21 20 20 22 22 19 16 16 16 14 13 12 12 11 12 12 11 10 10 11 12 14 14 15 15 16 16 17 17 17 18 17 17
53 54 54 57 58 58 60 61 60 61 60 57 52 47 44 41 43 47 45 42 42 41 36 30 31 32 30 29 27 25 22 18 16 17 19 21 20 18 17 16 14 13 13 12 13 13 12 11 11 11 13 14 14 14 15 15 16 17 17 17 17 17 17
52 55 57 59 60 59 61 64 64 63 62 60 59 56 51 44 39 42 45 46 45 41 35 33 33 32 30 29 27 26 23 19 16 15 15 19 21 19 17 16 15 14 14 14 14 15 14 13 13 13 13 13 13 14 15 15 17 18 18 17 16 16 16
52 57 59 59 59 60 63 66 65 66 67 63 58 56 55 51 42 37 41 47 46 40 36 34 32 33 33 31 30 28 24 21 18 15 15 19 21 21 20 20 18 17 16 17 17 17 16 16 15 14 14 13 14 14 15 16 18 18 18 18 17 17 17
52 55 58 57 58 60 63 64 65 67 67 64 62 60 57 55 51 43 43 49 45 38 38 35 32 34 34 32 32 30 24 21 18 14 15 18 21 21 20 21 23 22 19 19 19 19 18 17 17 16 15 15 15 15 16 17 18 18 18 18 18 18 18
49 51 55 57 57 58 60 63 65 67 67 65 66 66 59 55 56 50 45 49 46 42 43 37 32 34 33 32 33 31 26 23 18 14 14 17 19 18 17 19 24 24 21 20 21 21 20 19 18 18 17 16 17 17 17 17 17 18 19 19 19 19 18
48 48 51 56 58 57 59 63 64 66 69 67 64 65 61 57 60 56 48 49 48 47 45 36 30 31 31 31 32 29 25 22 18 16 18 18 18 17 17 19 22 24 24 22 21 22 23 21 21 20 19 19 19 19 18 18 18 19 20 20 20 19 18
48 48 50 56 60 59 60 63 65 65 67 67 65 65 64 64 64 58 54 57 54 49 46 38 30 29 28 29 30 27 26 23 20 19 21 21 20 20 20 21 23 25 25 22 22 24 25 24 23 23 22 21 19 19 20 19 20 21 21 21 20 19 16
46 47 50 54 57 59 61 63 64 65 65 66 67 67 67 70 68 63 63 63 55 49 50 43 34 31 30 29 29 29 29 26 22 21 22 23 24 22 22 23 24 26 24 21 22 24 25 26 25 25 24 22 19 19 20 21 21 21 21 20 19 18 16
44 44 46 49 51 56 60 61 62 64 65 65 66 69 70 70 70 70 70 66 55 50 50 45 38 35 32 30 29 29 28 24 20 21 24 26 26 23 23 25 25 25 23 20 22 24 26 27 27 26 25 23 20 19 20 21 22 22 21 20 20 18 16
42 40 41 45 49 52 54 57 60 62 64 65 67 70 71 68 70 73 71 68 63 56 52 49 44 36 31 30 29 28 26 22 18 18 21 23 23 22 24 25 24 24 24 23 24 26 27 28 28 28 26 24 22 21 21 21 21 21 21 20 18 16 15
40 39 39 41 44 48 49 53 57 58 59 62 64 67 68 68 72 73 68 67 67 61 55 54 49 40 33 30 30 29 28 25 21 17 18 19 20 21 23 24 25 26 25 25 26 27 28 29 29 28 26 25 24 22 22 21 21 20 19 19 18 16 16
38 38 38 38 41 44 46 49 53 54 55 57 59 61 63 66 70 69 66 67 68 63 56 53 50 47 40 33 31 32 31 29 25 21 19 20 22 23 22 22 24 25 24 24 25 26 28 29 29 27 25 25 23 22 21 20 19 18 17 18 18 18 18
37 37 37 38 39 41 44 47 49 51 51 51 53 57 59 62 65 65 65 68 69 63 55 51 50 51 47 40 35 33 32 30 27 24 24 24 24 25 24 23 24 25 23 23 23 24 26 26 26 25 24 23 21 19 18 16 16 15 16 17 18 18 19
37 36 36 37 38 40 44 47 48 51 52 51 52 56 58 60 61 62 64 66 66 62 57 54 50 49 50 47 39 35 34 31 27 26 28 28 26 26 26 26 26 25 24 23 22 22 22 23 23 23 23 22 19 17 16 15 15 15 16 16 18 19 22
37 35 36 37 38 42 45 45 45 48 51 52 54 56 57 58 58 60 63 63 61 59 57 55 50 48 51 48 40 36 35 33 28 26 29 31 28 26 26 27 27 26 24 23 22 23 24 24 24 24 24 23 20 18 18 17 17 17 17 17 19 21 23
37 36 38 39 40 42 43 40 39 43 47 51 54 55 56 57 57 59 62 60 58 57 55 52 51 50 50 47 40 36 36 34 30 27 30 32 29 27 27 28 27 26 24 23 24 27 29 28 27 27 27 25 23 23 21 20 21 21 21 21 22 23 25
37 37 40 41 40 40 39 36 36 40 45 48 52 54 55 56 58 59 60 58 57 57 54 52 51 50 49 45 41 38 37 35 32 30 32 33 32 29 29 28 28 26 24 25 28 32 33 32 31 31 30 28 27 26 24 23 25 26 26 26 27 27 28
38 41 42 41 39 37 37 38 38 39 42 46 49 52 53 54 55 57 57 56 56 55 54 51 50 49 47 45 42 39 36 35 34 34 34 35 35 32 30 29 29 27 26 28 32 35 36 35 34 34 33 30 29 28 26 26 28 29 29 29 30 31 32
41 42 42 41 39 38 39 40 39 38 40 44 48 50 50 50 51 53 54 54 53 53 52 51 50 47 45 44 42 38 35 35 35 34 34 37 37 35 33 32 32 31 30 32 36 38 38 38 37 37 35 33 31 29 28 29 31 32 32 32 32 33 35
42 42 41 39 39 40 40 40 39 37 38 41 44 47 47 46 48 50 51 52 52 50 50 51 49 45 44 44 41 36 34 35 36 35 35 37 37 36 35 33 33 34 35 36 38 41 42 42 40 38 37 35 32 31 32 32 33 33 33 34 34 36 38
43 44 43 40 38 39 40 41 39 37 38 39 40 43 44 44 45 45 46 49 50 48 49 50 47 43 42 42 39 35 33 34 36 36 37 38 37 36 35 34 34 36 38 40 42 44 46 44 42 40 39 36 34 34 35 35 35 35 35 35 36 37 40
46 46 45 42 39 40 41 42 40 38 38 38 39 41 40 39 42 43 44 46 48 47 48 48 45 42 40 39 37 34 33 33 35 37 39 40 38 37 36 36 37 38 40 43 44 46 47 46 44 42 41 38 37 37 37 37 37 36 36 36 38 40 43
47 47 47 44 43 42 40 40 42 41 39 39 41 42 39 37 39 42 43 45 46 47 47 45 43 40 37 35 36 34 32 33 35 37 40 41 40 39 38 37 38 40 42 44 46 47 48 46 44 44 43 42 41 40 39 39 38 38 38 40 42 44 45
48 49 49 48 47 45 39 40 43 42 41 42 42 41 40 39 39 38 39 42 44 46 45 43 41 39 36 34 35 34 32 33 33 35 39 42 41 40 39 38 39 40 41 43 45 47 47 46 45 44 44 44 42 41 41 40 40 41 42 44 45 45 46
50 50 50 49 49 45 39 38 41 41 42 42 40 39 41 41 38 36 36 38 41 42 42 40 39 39 38 35 34 34 33 33 33 34 36 40 41 41 42 41 39 38 39 40 42 45 46 46 45 45 45 45 43 41 41 40 41 43 44 45 46 46 46
50 50 49 49 47 43 38 37 39 40 41 41 39 39 41 40 37 34 34 35 35 35 35 35 36 38 38 35 34 34 33 34 35 35 36 38 41 42 42 41 38 37 37 39 41 44 46 47 48 49 48 44 40 39 40 40 41 42 43 45 47 48 49
48 48 47 46 43 40 37 38 40 41 41 39 37 38 40 40 38 35 32 31 31 30 30 31 34 37 37 35 33 34 35 35 37 38 38 40 41 41 40 39 38 38 38 40 43 46 48 50 52 50 44 38 37 38 40 40 41 42 42 43 45 47 50
45 44 43 43 41 38 37 38 41 42 41 38 36 36 38 39 38 35 32 30 31 31 30 31 34 37 37 35 34 34 35 36 38 40 41 41 42 40 39 39 39 39 40 42 45 47 48 49 48 43 38 36 37 38 39 40 41 42 41 41 42 44 44
43 41 39 38 38 36 36 38 40 41 41 37 35 34 37 39 37 33 31 30 31 33 33 32 34 37 37 35 35 35 36 36 36 37 39 40 40 39 39 39 39 40 41 42 44 44 44 42 40 38 37 38 38 38 39 40 41 41 41 41 41 41 40
38 36 34 34 34 34 35 38 40 42 42 39 36 35 37 39 37 32 31 33 34 35 35 34 35 38 38 37 37 37 37 36 36 36 37 38 38 38 38 39 40 40 41 41 41 42 42 41 39 38 38 37 38 39 40 40 40 40 40 40 40 40 39
32 30 29 30 31 32 34 37 40 42 42 40 38 37 38 40 39 34 34 39 42 42 41 40 40 39 39 39 39 39 38 38 38 39 39 39 39 39 39 40 40 38 38 39 38 38 39 39 38 38 38 38 40 41 41 41 41 42 41 40 40 40 39
30 27 26 26 26 28 33 37 40 42 41 39 39 40 40 40 39 37 37 42 46 47 46 45 44 43 42 41 40 41 41 41 41 41 40 39 39 40 41 40 39 38 38 39 38 38 39 39 39 39 40 41 42 42 42 43 43 42 41 40 40 40 40
29 24 23 23 23 27 34 39 39 39 40 40 40 42 42 42 40 39 40 43 45 46 47 46 45 45 44 42 41 42 44 44 44 43 42 42 41 42 42 42 42 42 41 39 39 40 40 40 39 40 42 43 43 44 44 43 42 42 41 40 40 41 41
28 24 23 24 25 27 33 38 40 39 39 41 42 42 44 45 43 42 44 47 48 48 49 48 47 45 43 42 43 43 44 45 45 45 45 45 43 42 43 44 44 43 41 39 39 41 41 41 41 43 44 45 45 45 44 42 42 41 41 41 42 42 43
27 25 24 24 27 28 30 34 38 38 37 41 44 44 44 45 47 47 47 50 52 52 51 50 50 47 44 42 43 43 44 45 46 46 45 45 44 44 44 44 42 41 40 41 42 42 42 43 44 45 47 47 46 45 44 42 41 41 41 42 43 43 43
Wind_Direction
226 223 220 219 218 219 220 221 224 223 221 224 229 230 229 231 229 229 238 239 231 232 230 215 210 211 207 209 212 215 222 227 232 243 252 255 262 271 268 262 264 271 276 280 278 274 267 258 258 263 265 265 264 263 263 263 264 265 265 266 265 264 266
226 225 222 221 220 220 221 221 224 225 224 223 224 229 230 232 231 229 237 244 237 233 231 218 212 215 211 209 215 218 221 224 230 242 252 258 263 265 260 258 264 271 280 284 279 273 269 265 265 270 271 271 270 270 269 268 267 265 263 263 264 264 265
226 226 223 221 221 221 222 223 224 225 227 224 222 224 226 230 235 233 235 245 243 234 228 218 210 212 210 207 213 220 219 218 224 234 246 254 256 252 249 254 259 265 277 283 276 268 263 265 270 272 274 276 275 271 267 266 264 263 260 259 261 262 261
225 227 225 222 221 220 220 222 223 225 228 228 227 230 229 228 236 238 236 241 245 238 229 221 212 206 205 204 205 214 217 212 214 226 237 243 247 245 244 251 255 256 264 270 268 265 261 263 269 274 279 282 278 270 264 260 257 257 257 257 257 257 256
225 226 226 224 223 221 220 221 222 224 227 227 228 232 231 228 232 238 237 237 242 244 236 225 213 205 205 207 207 211 215 213 212 224 234 230 228 232 238 247 252 249 249 254 258 260 259 261 268 275 283 287 281 270 261 255 252 252 255 257 256 255 252
228 227 228 226 225 224 224 223 223 224 227 228 228 231 230 229 229 233 240 239 238 244 243 229 215 211 211 213 216 215 214 215 213 219 228 221 216 222 229 239 247 247 242 243 247 254 259 263 268 275 282 287 283 272 262 256 251 249 251 254 254 253 252
233 229 230 229 226 225 225 225 224 225 228 228 229 232 232 232 230 229 239 244 237 239 244 232 217 217 218 217 219 217 212 211 211 214 220 220 221 225 225 229 241 245 241 240 244 252 259 262 267 273 278 282 280 272 265 259 251 245 246 247 249 251 253
235 231 231 231 228 225 225 226 225 224 228 230 232 235 235 235 236 233 235 241 237 235 238 232 219 219 221 221 219 217 214 210 207 213 222 228 234 239 237 234 238 242 243 245 249 254 259 264 268 271 274 278 277 270 264 256 247 242 242 244 247 252 259
233 230 229 231 230 227 227 228 228 225 226 229 231 234 235 236 239 237 238 240 240 240 240 236 232 226 220 220 219 216 214 209 204 210 220 230 238 246 251 248 244 245 248 252 254 256 260 264 267 268 271 276 274 266 258 250 243 243 246 247 252 260 273
234 232 232 234 233 232 231 231 231 229 227 227 230 232 233 235 236 236 239 242 243 244 244 242 238 229 220 218 220 219 215 207 207 214 217 226 236 245 254 252 244 246 251 254 254 255 257 261 265 266 269 274 272 261 254 249 246 249 252 257 264 274 285
236 236 238 240 239 237 236 234 233 233 230 228 228 231 231 234 237 237 238 241 241 240 243 241 235 227 221 218 220 223 221 212 214 222 221 225 233 241 251 252 246 246 250 252 252 253 256 260 262 264 267 271 269 260 255 252 253 256 260 267 274 281 288
237 236 237 240 241 240 239 238 237 236 235 231 229 231 231 232 236 238 237 238 239 236 236 239 237 230 224 222 222 223 222 218 219 224 223 225 230 237 248 252 247 242 244 247 251 255 257 259 260 262 266 267 263 259 257 256 258 261 266 272 278 285 291
241 239 237 238 241 242 240 240 240 240 240 238 234 234 234 233 235 238 238 239 240 237 234 237 240 237 229 226 226 225 221 215 212 215 221 228 234 239 245 247 244 239 240 246 251 256 258 258 258 260 263 263 260 260 261 262 263 267 272 277 281 289 297
240 240 239 238 240 242 241 240 241 241 241 241 240 238 237 237 239 240 241 241 242 240 236 235 239 242 239 232 228 230 228 220 214 215 222 231 237 240 241 242 243 240 241 246 251 254 255 256 258 261 262 261 260 262 264 267 271 275 280 282 286 293 299
238 237 238 238 238 240 241 240 239 239 239 239 240 239 237 238 240 241 242 243 244 244 242 239 238 242 244 239 232 231 231 226 220 220 223 228 232 234 236 241 242 240 241 246 248 249 251 254 257 259 258 258 258 259 261 265 272 277 280 284 289 295 299
238 237 238 240 240 241 242 240 238 238 238 237 238 240 240 238 239 240 241 242 244 245 245 243 239 240 244 243 236 230 230 228 224 220 223 227 228 230 235 240 241 240 242 246 248 250 254 257 259 258 256 257 257 254 255 260 268 273 278 285 292 297 299
237 238 238 239 240 241 242 241 239 241 242 242 241 241 242 241 239 239 241 241 243 244 244 244 242 240 242 243 238 232 231 230 227 223 224 227 228 231 234 235 236 239 242 245 249 254 258 261 262 260 258 259 259 258 259 265 272 276 280 287 294 299 303
236 238 239 237 236 239 242 242 241 243 245 245 244 243 242 241 239 238 240 241 241 242 242 242 242 241 241 241 239 235 231 227 227 227 225 223 224 225 225 229 233 237 241 245 249 252 255 259 263 263 263 265 266 267 270 277 281 282 284 288 292 297 302
236 240 242 240 238 241 244 243 240 241 242 242 243 244 243 242 242 242 242 241 241 241 240 239 240 240 240 240 237 233 228 222 220 222 222 220 219 219 220 226 233 237 241 244 248 252 257 262 264 265 266 269 269 271 276 282 283 284 287 290 291 293 298
235 239 242 243 242 242 243 242 240 239 239 237 239 242 243 244 245 246 244 243 241 241 240 239 239 239 240 240 236 230 225 220 218 219 218 217 216 216 218 225 231 235 238 238 241 250 258 262 262 263 264 266 269 274 279 280 280 283 288 290 290 292 295
237 239 242 243 243 241 241 242 241 240 238 235 236 241 245 247 247 247 246 244 242 241 240 239 239 239 239 240 236 229 223 222 221 220 217 217 217 217 219 224 228 232 235 235 237 247 255 258 258 259 261 264 270 276 278 278 278 282 286 288 289 291 294
240 241 242 243 243 244 243 243 242 240 238 235 235 240 245 247 246 247 247 245 242 241 240 239 239 238 238 238 236 229 224 224 224 221 217 216 217 217 218 222 226 232 238 239 241 246 251 253 255 258 260 264 270 275 276 276 276 279 283 285 287 290 293
240 241 242 241 242 244 243 243 243 241 239 237 235 238 242 244 244 245 246 245 243 241 240 239 238 237 237 238 236 231 226 225 225 224 219 215 215 216 216 219 225 233 239 241 243 247 250 253 256 259 261 265 270 274 273 272 273 276 279 282 285 289 292
237 240 241 239 240 243 243 244 246 245 242 239 236 237 241 243 243 243 245 245 242 240 240 239 237 235 235 237 237 232 228 228 227 224 220 217 217 220 221 223 227 232 238 241 244 248 251 254 258 261 263 266 269 271 270 269 270 273 277 281 285 289 291
237 241 242 241 240 242 244 245 247 247 246 243 239 240 243 245 245 245 246 246 244 242 241 239 236 232 231 234 236 233 230 230 228 224 221 218 221 225 227 229 231 234 238 242 245 248 251 255 259 263 265 268 269 269 268 267 268 271 275 281 286 288 289
238 241 243 244 244 242 244 248 247 245 246 246 243 242 244 246 245 244 245 246 245 244 243 240 234 227 224 228 233 234 233 232 230 228 223 221 223 228 230 232 234 237 241 244 247 251 255 258 261 264 267 268 267 265 264 266 271 276 281 284 286 286 287
238 241 243 245 245 242 244 249 246 243 244 247 246 244 245 245 245 244 244 245 246 247 245 240 233 225 221 225 232 234 233 232 232 231 226 224 226 231 233 235 238 241 245 248 251 254 257 260 263 265 265 265 264 265 269 275 281 284 284 283 283 285 287
238 241 243 245 246 246 248 249 248 247 247 248 248 245 244 244 242 242 242 242 244 247 245 238 230 223 221 226 232 233 233 232 232 232 228 227 230 234 236 239 242 245 248 250 252 253 255 257 258 257 257 259 263 270 276 280 281 281 281 281 282 284 285
238 242 245 246 249 251 252 251 253 251 246 245 246 244 242 240 238 237 238 237 235 235 236 233 225 219 219 225 231 233 233 232 232 231 228 228 231 235 238 242 244 246 247 248 249 250 249 250 251 253 256 261 267 273 276 276 277 279 280 282 283 283 283
239 243 246 247 249 249 247 249 251 247 241 241 244 241 238 236 234 233 233 229 223 219 221 224 221 216 218 223 225 226 227 227 227 228 228 229 231 235 237 239 239 239 241 243 245 246 246 248 252 258 263 265 267 269 272 273 275 277 279 281 282 283 284
239 243 245 247 249 247 244 246 246 239 235 236 238 237 236 234 230 228 225 220 215 213 213 215 217 217 218 220 220 219 220 221 224 226 228 230 232 234 235 236 237 238 239 241 243 245 249 253 258 263 266 267 267 269 271 272 273 274 277 279 281 282 285
236 241 244 245 247 245 242 243 240 234 231 234 235 234 234 230 225 223 220 213 207 206 208 211 214 217 218 217 216 217 218 220 224 226 227 229 231 233 236 239 242 245 247 249 251 253 255 259 262 265 267 268 269 270 270 270 271 274 276 279 279 281 285
233 237 241 244 245 241 236 236 235 232 230 231 232 230 228 224 219 217 216 210 201 196 199 202 205 211 215 215 214 217 220 223 226 229 230 231 234 237 239 241 242 244 248 252 255 256 257 259 261 263 266 269 271 271 270 271 272 273 275 277 278 281 284
231 233 236 241 242 235 227 225 226 226 225 227 229 228 223 219 215 213 214 211 201 194 194 197 198 203 210 213 216 220 225 228 229 231 233 235 237 239 240 240 241 243 247 253 256 258 261 262 262 263 267 270 272 272 272 272 272 272 273 275 278 281 283
232 232 234 237 235 228 221 218 218 220 222 226 230 226 219 214 211 210 210 209 205 200 199 200 200 203 207 213 219 224 228 231 233 235 237 238 239 239 239 240 243 247 251 255 259 262 263 263 262 265 269 271 272 272 271 271 271 271 273 276 278 280 282
229 230 230 231 229 225 221 218 217 217 218 223 225 221 215 212 212 210 209 208 209 209 207 205 204 206 210 215 222 227 231 234 236 238 240 242 243 243 244 245 248 250 253 256 259 261 261 261 263 267 270 270 270 269 268 269 270 272 274 277 279 280 281
221 223 225 226 226 224 222 221 219 217 216 217 218 216 215 215 214 212 211 211 213 216 215 212 209 210 212 215 219 225 230 234 237 239 241 242 244 245 246 247 248 249 252 255 257 258 259 262 265 267 267 267 266 266 267 268 271 273 276 278 279 280 280
Height
5836 5840 5844 5846 5849 5852 5856 5858 5858 5863 5869 5871 5872 5874 5877 5878 5878 5878 5874 5874 5881 5884 5886 5891 5893 5892 5894 5895 5896 5898 5899 5900 5902 5902 5903 5905 5906 5906 5906 5905 5905 5905 5906 5906 5906 5906 5907 5907 5908 5908 5909 5909 5909 5909 5910 5910 5910 5910 5910 5910 5910 5910 5910
5831 5836 5841 5842 5845 5848 5850 5853 5856 5860 5863 5865 5868 5871 5871 5871 5871 5873 5873 5872 5876 5880 5882 5887 5890 5889 5891 5893 5894 5895 5897 5898 5900 5901 5902 5903 5904 5905 5904 5904 5904 5905 5905 5905 5905 5905 5905 5906 5906 5907 5907 5907 5907 5907 5907 5907 5908 5908 5908 5907 5907 5907 5907
5827 5830 5834 5835 5839 5843 5847 5850 5852 5854 5855 5858 5861 5862 5864 5866 5866 5868 5871 5870 5870 5874 5879 5883 5886 5887 5889 5891 5892 5893 5894 5896 5898 5899 5900 5901 5902 5903 5903 5903 5903 5904 5904 5905 5904 5904 5904 5905 5905 5905 5905 5905 5905 5905 5905 5905 5905 5905 5905 5905 5905 5905 5904
5822 5823 5825 5828 5831 5837 5840 5842 5845 5848 5849 5853 5855 5856 5858 5863 5863 5865 5868 5867 5865 5869 5876 5879 5882 5885 5886 5887 5889 5890 5891 5893 5895 5897 5898 5899 5900 5901 5901 5901 5901 5902 5903 5903 5903 5903 5903 5903 5903 5904 5904 5903 5903 5903 5903 5903 5903 5903 5903 5903 5902 5902 5901
5815 5815 5818 5823 5827 5831 5832 5834 5839 5842 5842 5847 5852 5852 5854 5858 5861 5862 5862 5862 5864 5867 5871 5875 5878 5881 5883 5884 5885 5887 5888 5890 5891 5893 5895 5896 5897 5898 5899 5899 5900 5900 5901 5901 5901 5901 5901 5901 5902 5902 5902 5902 5901 5901 5901 5901 5900 5900 5900 5900 5900 5899 5899
5809 5813 5816 5821 5825 5826 5827 5830 5834 5837 5838 5844 5846 5845 5848 5853 5855 5857 5857 5856 5862 5866 5866 5869 5875 5878 5880 5881 5882 5883 5885 5887 5888 5890 5892 5893 5895 5896 5897 5897 5897 5897 5898 5898 5899 5899 5899 5899 5900 5900 5900 5900 5899 5899 5899 5898 5898 5898 5898 5897 5897 5896 5896
5807 5811 5812 5815 5819 5821 5823 5825 5830 5834 5835 5838 5839 5838 5845 5849 5848 5852 5854 5851 5856 5863 5862 5864 5869 5873 5875 5877 5878 5880 5882 5883 5884 5887 5890 5891 5892 5893 5894 5895 5894 5894 5895 5895 5896 5897 5897 5897 5898 5897 5898 5897 5897 5897 5896 5896 5896 5896 5895 5895 5894 5894 5894
5802 5806 5807 5808 5811 5815 5816 5818 5823 5828 5829 5833 5836 5837 5843 5845 5843 5848 5850 5845 5848 5857 5858 5860 5865 5869 5872 5873 5875 5877 5879 5880 5882 5884 5887 5889 5890 5891 5892 5892 5892 5892 5892 5893 5894 5894 5894 5895 5895 5895 5895 5895 5895 5894 5894 5894 5894 5893 5893 5892 5892 5892 5894
5796 5799 5801 5801 5804 5808 5811 5813 5817 5820 5824 5829 5832 5834 5839 5837 5836 5843 5843 5837 5843 5852 5855 5857 5862 5865 5868 5870 5871 5874 5875 5876 5878 5880 5883 5885 5887 5888 5889 5889 5889 5889 5890 5891 5891 5892 5892 5892 5892 5893 5893 5893 5892 5892 5892 5892 5892 5891 5890 5890 5891 5892 5894
5790 5793 5795 5797 5801 5805 5807 5810 5811 5814 5820 5823 5825 5829 5830 5827 5829 5836 5834 5833 5843 5850 5850 5853 5858 5861 5864 5866 5868 5869 5870 5873 5875 5877 5880 5882 5883 5885 5885 5886 5886 5886 5887 5888 5889 5889 5889 5889 5890 5890 5890 5890 5890 5890 5890 5890 5889 5888 5888 5889 5890 5891 5892
5786 5790 5794 5797 5799 5800 5802 5805 5808 5809 5813 5817 5820 5820 5820 5821 5825 5826 5826 5831 5840 5845 5846 5849 5853 5856 5859 5862 5865 5866 5867 5870 5873 5874 5875 5877 5878 5880 5881 5882 5883 5883 5884 5886 5886 5886 5886 5886 5887 5887 5887 5887 5887 5888 5888 5887 5887 5886 5886 5887 5888 5889 5889
5782 5787 5791 5792 5793 5795 5798 5801 5803 5804 5806 5811 5813 5811 5814 5820 5819 5816 5821 5828 5832 5836 5842 5844 5847 5851 5855 5858 5861 5862 5863 5866 5868 5870 5871 5873 5874 5876 5877 5878 5879 5881 5882 5883 5883 5883 5883 5883 5884 5884 5884 5884 5885 5885 5885 5885 5884 5884 5885 5885 5885 5886 5885
5779 5783 5786 5788 5789 5790 5793 5795 5797 5799 5801 5803 5806 5808 5812 5816 5812 5812 5819 5824 5824 5830 5837 5840 5843 5846 5850 5854 5856 5857 5859 5861 5863 5866 5867 5869 5871 5872 5874 5875 5876 5877 5879 5880 5880 5880 5880 5880 5880 5881 5881 5882 5882 5882 5882 5882 5882 5882 5882 5882 5882 5882 5882
5774 5777 5781 5784 5785 5786 5788 5790 5792 5794 5796 5797 5800 5804 5808 5810 5809 5811 5817 5818 5818 5823 5831 5836 5840 5841 5844 5848 5851 5852 5854 5856 5858 5861 5863 5866 5868 5869 5871 5872 5873 5874 5875 5876 5876 5876 5876 5877 5877 5878 5878 5878 5879 5878 5878 5879 5879 5879 5879 5879 5879 5879 5879
5768 5771 5775 5778 5780 5782 5783 5785 5787 5789 5791 5792 5794 5797 5801 5804 5805 5809 5813 5812 5812 5818 5826 5832 5835 5837 5838 5841 5845 5847 5849 5851 5854 5856 5859 5862 5864 5866 5868 5869 5870 5871 5872 5872 5873 5873 5873 5874 5874 5875 5875 5875 5875 5875 5876 5876 5876 5877 5877 5877 5876 5876 5876
5763 5767 5770 5772 5775 5778 5778 5779 5781 5783 5785 5787 5789 5791 5794 5797 5800 5804 5805 5805 5807 5814 5821 5825 5829 5832 5834 5835 5839 5842 5844 5846 5849 5852 5855 5858 5860 5862 5864 5865 5866 5867 5868 5869 5869 5870 5870 5871 5871 5872 5872 5872 5873 5873 5874 5874 5874 5874 5874 5874 5874 5873 5873
5760 5763 5765 5768 5771 5771 5770 5773 5777 5779 5781 5783 5785 5787 5789 5792 5796 5798 5798 5800 5805 5810 5814 5818 5823 5826 5828 5830 5834 5837 5840 5843 5845 5847 5851 5854 5856 5858 5860 5861 5863 5864 5865 5866 5866 5867 5867 5867 5868 5868 5868 5869 5870 5871 5871 5871 5872 5872 5871 5871 5870 5870 5869
5757 5759 5759 5761 5763 5763 5765 5770 5774 5776 5777 5778 5780 5782 5784 5786 5789 5791 5793 5798 5801 5803 5807 5812 5816 5819 5822 5825 5829 5833 5836 5839 5840 5843 5846 5849 5851 5853 5855 5857 5859 5860 5861 5862 5862 5862 5862 5863 5864 5864 5865 5866 5867 5867 5868 5868 5868 5868 5868 5867 5867 5866 5865
5754 5755 5754 5756 5758 5760 5763 5767 5769 5770 5772 5773 5774 5776 5779 5780 5783 5786 5789 5794 5796 5798 5802 5807 5810 5813 5817 5820 5824 5827 5830 5833 5836 5839 5842 5845 5847 5849 5850 5853 5855 5856 5858 5858 5858 5857 5857 5858 5860 5860 5861 5862 5863 5864 5864 5865 5864 5864 5864 5863 5863 5862 5861
5748 5749 5749 5751 5754 5757 5759 5760 5761 5763 5767 5769 5769 5770 5773 5775 5778 5782 5785 5789 5793 5795 5798 5802 5804 5808 5811 5814 5818 5822 5825 5828 5831 5834 5837 5840 5842 5844 5847 5849 5850 5852 5854 5854 5853 5853 5853 5854 5855 5856 5857 5859 5860 5860 5861 5861 5861 5860 5860 5859 5859 5858 5857
5742 5744 5745 5748 5750 5752 5754 5754 5756 5759 5763 5765 5765 5765 5768 5772 5775 5777 5780 5785 5788 5791 5794 5797 5799 5804 5807 5809 5813 5818 5821 5824 5827 5829 5832 5835 5838 5840 5842 5844 5846 5847 5849 5849 5848 5848 5849 5850 5851 5852 5853 5855 5856 5857 5858 5857 5857 5857 5856 5855 5855 5854 5853
5737 5740 5742 5744 5746 5747 5748 5749 5751 5755 5758 5761 5762 5763 5765 5769 5772 5774 5776 5780 5784 5787 5790 5791 5795 5799 5802 5804 5809 5814 5818 5820 5823 5825 5828 5831 5833 5836 5838 5839 5841 5843 5844 5844 5844 5844 5844 5845 5846 5848 5850 5851 5853 5853 5853 5853 5853 5852 5852 5851 5850 5849 5848
5733 5735 5737 5739 5741 5742 5742 5744 5747 5751 5753 5757 5759 5760 5761 5765 5769 5771 5772 5775 5779 5783 5785 5786 5791 5795 5796 5800 5806 5810 5813 5816 5819 5821 5824 5826 5829 5831 5833 5835 5837 5838 5839 5839 5839 5839 5840 5841 5843 5845 5846 5848 5849 5849 5849 5849 5848 5848 5847 5846 5846 5845 5844
5728 5729 5731 5734 5736 5735 5736 5740 5744 5747 5750 5753 5755 5755 5757 5761 5764 5766 5767 5770 5774 5778 5779 5782 5787 5790 5793 5798 5802 5805 5809 5812 5814 5816 5819 5822 5825 5827 5829 5830 5832 5833 5833 5834 5835 5836 5836 5838 5840 5841 5842 5844 5845 5844 5844 5844 5843 5843 5843 5842 5841 5840 5839
5723 5725 5726 5729 5731 5731 5734 5737 5740 5744 5747 5749 5751 5752 5754 5758 5760 5762 5764 5766 5769 5772 5774 5778 5783 5787 5790 5794 5797 5801 5805 5807 5809 5812 5815 5817 5820 5822 5824 5826 5828 5828 5829 5830 5831 5832 5833 5835 5836 5837 5838 5839 5840 5840 5839 5839 5839 5839 5838 5837 5836 5835 5833
5719 5721 5722 5724 5726 5727 5732 5735 5736 5740 5743 5744 5747 5750 5752 5754 5757 5759 5761 5763 5764 5767 5770 5775 5779 5783 5787 5790 5794 5797 5800 5802 5805 5808 5810 5813 5816 5818 5820 5822 5823 5824 5825 5826 5827 5828 5829 5830 5832 5832 5833 5834 5835 5835 5834 5834 5834 5834 5833 5832 5830 5829 5828
5715 5716 5718 5719 5719 5723 5729 5732 5733 5736 5739 5740 5744 5748 5749 5751 5753 5755 5757 5759 5760 5763 5766 5770 5775 5779 5783 5786 5789 5793 5795 5798 5801 5804 5806 5809 5812 5813 5815 5817 5818 5820 5821 5822 5823 5824 5824 5825 5826 5827 5828 5829 5829 5829 5829 5829 5829 5828 5827 5826 5824 5823 5821
5711 5712 5713 5715 5716 5721 5727 5729 5730 5732 5735 5737 5741 5743 5745 5747 5749 5751 5753 5755 5757 5759 5762 5766 5770 5775 5779 5782 5785 5788 5791 5794 5796 5799 5802 5805 5807 5809 5810 5812 5814 5816 5817 5818 5819 5819 5819 5820 5820 5819 5821 5823 5824 5824 5824 5824 5823 5822 5821 5819 5818 5816 5814
5707 5708 5709 5711 5714 5719 5723 5725 5725 5727 5730 5733 5736 5739 5741 5743 5745 5746 5749 5751 5753 5755 5758 5762 5766 5770 5774 5777 5781 5783 5786 5789 5792 5794 5797 5799 5801 5804 5806 5807 5809 5810 5812 5813 5813 5813 5813 5813 5813 5814 5815 5817 5817 5818 5818 5817 5816 5815 5814 5813 5812 5810 5808
5702 5703 5705 5708 5711 5715 5718 5719 5720 5723 5726 5729 5732 5735 5737 5739 5740 5742 5745 5747 5749 5751 5754 5758 5762 5766 5770 5773 5776 5779 5782 5784 5786 5789 5792 5794 5796 5798 5800 5802 5803 5805 5806 5807 5807 5807 5807 5808 5808 5809 5810 5810 5810 5811 5812 5811 5810 5809 5808 5807 5806 5804 5802
5697 5699 5702 5704 5707 5710 5713 5714 5715 5718 5721 5724 5728 5731 5733 5735 5737 5739 5741 5743 5746 5748 5751 5755 5759 5763 5767 5770 5773 5775 5777 5780 5782 5784 5787 5789 5791 5793 5795 5796 5798 5799 5800 5800 5800 5801 5801 5802 5803 5804 5804 5805 5805 5806 5805 5805 5804 5803 5802 5801 5800 5798 5796
5694 5696 5699 5701 5703 5706 5708 5709 5711 5714 5717 5720 5724 5727 5729 5731 5734 5736 5738 5740 5743 5745 5749 5752 5756 5760 5763 5766 5769 5771 5773 5775 5777 5779 5781 5784 5786 5787 5789 5791 5792 5793 5794 5794 5795 5795 5796 5797 5798 5799 5799 5800 5800 5799 5799 5798 5797 5797 5796 5795 5793 5791 5789
5691 5693 5695 5696 5698 5701 5703 5705 5707 5710 5713 5715 5719 5723 5725 5727 5730 5732 5735 5737 5738 5740 5743 5746 5751 5755 5758 5761 5764 5766 5768 5771 5772 5774 5776 5779 5781 5783 5784 5785 5786 5788 5788 5789 5790 5790 5791 5792 5792 5793 5793 5793 5793 5792 5792 5791 5791 5790 5789 5788 5786 5784 5782
5687 5689 5691 5692 5694 5696 5698 5700 5703 5706 5709 5711 5714 5718 5721 5724 5726 5728 5731 5734 5736 5737 5739 5741 5745 5749 5752 5755 5758 5761 5763 5766 5768 5769 5771 5773 5775 5777 5778 5779 5781 5782 5783 5784 5785 5786 5786 5786 5787 5787 5787 5787 5786 5786 5785 5785 5784 5784 5783 5781 5779 5777 5775
5683 5686 5688 5688 5689 5691 5693 5696 5700 5703 5705 5707 5709 5713 5717 5720 5722 5724 5727 5731 5734 5735 5736 5738 5740 5743 5747 5750 5753 5755 5758 5760 5762 5764 5766 5768 5770 5771 5773 5774 5775 5777 5778 5779 5780 5780 5780 5781 5781 5781 5780 5780 5780 5779 5779 5778 5778 5777 5776 5774 5771 5770 5769
5680 5683 5684 5685 5686 5687 5689 5692 5695 5698 5700 5703 5705 5708 5712 5715 5717 5720 5722 5726 5729 5731 5733 5734 5735 5738 5741 5744 5747 5749 5751 5754 5756 5758 5760 5762 5764 5766 5768 5769 5770 5771 5772 5773 5774 5774 5774 5775 5775 5774 5774 5774 5773 5773 5772 5771 5771 5770 5768 5766 5764 5763 5763
5675 5678 5680 5682 5683 5684 5685 5688 5691 5694 5697 5699 5701 5704 5708 5711 5713 5715 5717 5720 5724 5727 5729 5731 5731 5732 5734 5737 5739 5742 5745 5747 5750 5752 5754 5756 5758 5760 5762 5763 5764 5765 5766 5767 5767 5768 5768 5768 5768 5768 5768 5767 5767 5766 5765 5765 5764 5762 5761 5760 5759 5758 5757